Newton, IA

8:18 AM CST on February 12, 2016 (GMT -0600)
Newton Municipal

Weather History for KTNU - May, 2013

Change the Weather History Date:

Friday, May 24, 2013

  Actual Average Record
Temperature  
Mean Temperature 58 °F -  
Max Temperature 69 °F 73 °F 86 °F (2006)
Min Temperature 46 °F 52 °F 39 °F (1976)
Degree Days  
Heating Degree Days 8    
Growing Degree Days 8 (Base 50)    
Moisture  
Dew Point 45 °F    
Average Humidity 61    
Maximum Humidity 87    
Minimum Humidity 38    
Precipitation  
Precipitation 0.00 in - - ()
Sea Level Pressure  
Sea Level Pressure 30.29 in    
Wind  
Wind Speed 9 mph (ESE)    
Max Wind Speed 20 mph    
Max Gust Speed 28 mph    
Visibility 10 miles    
Events      
Averages and records for this station are not official NWS values.
T = Trace of Precipitation, MM = Missing Value Source: NWS Daily Summary

Daily Weather History Graph

Daily Weather History Graph

Search for Another Location

Airport or City:

Trip Planner

Search our weather history database for the weather conditions in past years. The results will help you decide how hot, cold, wet, or windy it might be!

Date:

Astronomy

May. 24, 2013 Rise Set
Actual Time 5:44 AM CDT 8:33 PM CDT
Civil Twilight 5:11 AM CDT 9:06 PM CDT
Nautical Twilight 4:30 AM CDT 9:47 PM CDT
Astronomical Twilight 3:43 AM CDT 10:35 PM CDT
Moon 8:16 PM CDT (5/24) 5:17 AM CDT (5/24)
Length of Visible Light 15h 54m
Length of Day
14h 49m
Full, 100% of the Moon is Illuminated
May 24
Full
May 24
Full
May 31
Last Quarter
Jun 8
New
Jun 16
First Quarter

Hourly Weather History & Observations

Time (CDT) Temp. Windchill Dew Point Humidity Pressure Visibility Wind Dir Wind Speed Gust Speed Precip Events Conditions
12:15 AM 53.6 °F - 42.8 °F 67% 30.28 in 10.0 mi ENE 8.1 mph - N/A   Clear
12:35 AM 51.8 °F - 42.8 °F 71% 30.29 in 10.0 mi Calm Calm - N/A   Clear
12:55 AM 51.8 °F - 42.8 °F 71% 30.29 in 10.0 mi NE 4.6 mph - N/A   Clear
1:15 AM 51.8 °F - 42.8 °F 71% 30.29 in 10.0 mi Calm Calm - N/A   Clear
1:35 AM 51.8 °F - 42.8 °F 71% 30.30 in 10.0 mi NNE 3.5 mph - N/A   Clear
1:55 AM 51.8 °F - 42.8 °F 71% 30.30 in 10.0 mi NE 4.6 mph - N/A   Clear
2:15 AM 50.0 °F - 42.8 °F 76% 30.30 in 10.0 mi NE 4.6 mph - N/A   Clear
2:35 AM 50.0 °F - 41.0 °F 71% 30.30 in 10.0 mi NE 4.6 mph - N/A   Clear
2:55 AM 50.0 °F - 41.0 °F 71% 30.30 in 10.0 mi NE 4.6 mph - N/A   Clear
3:15 AM 50.0 °F - 41.0 °F 71% 30.31 in 10.0 mi NE 5.8 mph - N/A   Clear
3:35 AM 50.0 °F - 41.0 °F 71% 30.31 in 10.0 mi NE 5.8 mph - N/A   Clear
3:55 AM 50.0 °F - 41.0 °F 71% 30.31 in 10.0 mi NE 5.8 mph - N/A   Clear
4:15 AM 48.2 °F - 41.0 °F 76% 30.32 in 10.0 mi NE 5.8 mph - N/A   Clear
4:35 AM 48.2 °F - 41.0 °F 76% 30.32 in 10.0 mi NE 5.8 mph - N/A   Clear
4:55 AM 48.2 °F - 41.0 °F 76% 30.32 in 10.0 mi NE 5.8 mph - N/A   Clear
5:15 AM 48.2 °F - 41.0 °F 76% 30.32 in 10.0 mi NE 5.8 mph - N/A   Clear
5:35 AM 46.4 °F 43.5 °F 41.0 °F 81% 30.33 in 10.0 mi ENE 5.8 mph - N/A   Clear
5:55 AM 46.4 °F 43.5 °F 41.0 °F 81% 30.34 in 10.0 mi ENE 5.8 mph - N/A   Clear
6:15 AM 46.4 °F 43.5 °F 41.0 °F 81% 30.35 in 10.0 mi ENE 5.8 mph - N/A   Clear
6:35 AM 46.4 °F 42.4 °F 41.0 °F 81% 30.35 in 10.0 mi East 8.1 mph - N/A   Clear
6:55 AM 46.4 °F 42.4 °F 42.8 °F 87% 30.35 in 10.0 mi East 8.1 mph - N/A   Clear
7:15 AM 50.0 °F - 44.6 °F 82% 30.36 in 10.0 mi ESE 9.2 mph - N/A   Clear
7:35 AM 51.8 °F - 46.4 °F 82% 30.36 in 10.0 mi SE 10.4 mph - N/A   Clear
7:55 AM 53.6 °F - 48.2 °F 82% 30.36 in 10.0 mi SSE 12.7 mph - N/A   Clear
8:15 AM 55.4 °F - 48.2 °F 77% 30.36 in 10.0 mi SSE 15.0 mph - N/A   Clear
8:35 AM 55.4 °F - 50.0 °F 82% 30.37 in 10.0 mi SSE 17.3 mph - N/A   Clear
8:55 AM 57.2 °F - 50.0 °F 77% 30.37 in 10.0 mi SSE 15.0 mph - N/A   Clear
9:15 AM 59.0 °F - 50.0 °F 72% 30.38 in 10.0 mi South 12.7 mph 20.7 mph N/A   Partly Cloudy
9:35 AM 57.2 °F - 50.0 °F 77% 30.38 in 10.0 mi SSE 15.0 mph - N/A   Scattered Clouds
9:55 AM 60.8 °F - 50.0 °F 68% 30.38 in 10.0 mi SSE 13.8 mph - N/A   Scattered Clouds
10:15 AM 60.8 °F - 50.0 °F 68% 30.37 in 10.0 mi SSE 16.1 mph - N/A   Partly Cloudy
10:35 AM 60.8 °F - 48.2 °F 63% 30.37 in 10.0 mi SSE 16.1 mph - N/A   Scattered Clouds
10:55 AM 62.6 °F - 48.2 °F 59% 30.36 in 10.0 mi SE 12.7 mph 20.7 mph N/A   Scattered Clouds
11:15 AM 64.4 °F - 48.2 °F 56% 30.36 in 10.0 mi SE 13.8 mph - N/A   Mostly Cloudy
11:35 AM 62.6 °F - 48.2 °F 59% 30.35 in 10.0 mi SE 13.8 mph - N/A   Scattered Clouds
11:55 AM 62.6 °F - 48.2 °F 59% 30.35 in 10.0 mi SE 10.4 mph 20.7 mph N/A   Clear
12:15 PM 64.4 °F - 46.4 °F 52% 30.34 in 10.0 mi SE 13.8 mph 20.7 mph N/A   Clear
12:35 PM 64.4 °F - 44.6 °F 49% 30.33 in 10.0 mi SSE 18.4 mph - N/A   Clear
12:55 PM 66.2 °F - 44.6 °F 46% 30.33 in 10.0 mi SSE 17.3 mph - N/A   Clear
1:15 PM 66.2 °F - 46.4 °F 49% 30.32 in 10.0 mi SE 16.1 mph 24.2 mph N/A   Clear
1:35 PM 66.2 °F - 46.4 °F 49% 30.32 in 10.0 mi SE 15.0 mph 26.5 mph N/A   Clear
1:55 PM 66.2 °F - 46.4 °F 49% 30.31 in 10.0 mi SE 16.1 mph 26.5 mph N/A   Partly Cloudy
2:15 PM 68.0 °F - 48.2 °F 49% 30.31 in 10.0 mi SE 16.1 mph 24.2 mph N/A   Partly Cloudy
2:35 PM 68.0 °F - 46.4 °F 46% 30.30 in 10.0 mi SSE 16.1 mph 23.0 mph N/A   Clear
2:55 PM 68.0 °F - 44.6 °F 43% 30.29 in - SSE 15.0 mph 21.9 mph N/A   Clear
3:15 PM 68.0 °F - 44.6 °F 43% 30.28 in 10.0 mi SSE 13.8 mph 25.3 mph N/A   Clear
3:35 PM 68.0 °F - 46.4 °F 46% 30.26 in 10.0 mi SE 18.4 mph 26.5 mph N/A   Clear
3:55 PM 68.0 °F - 46.4 °F 46% 30.26 in 10.0 mi SE 13.8 mph 26.5 mph N/A   Clear
4:15 PM 68.0 °F - 44.6 °F 43% 30.25 in 10.0 mi SSE 18.4 mph 24.2 mph N/A   Clear
4:35 PM 69.8 °F - 46.4 °F 43% 30.24 in 10.0 mi SSE 16.1 mph 25.3 mph N/A   Clear
4:55 PM 68.0 °F - 44.6 °F 43% 30.24 in 10.0 mi SSE 18.4 mph 25.3 mph N/A   Clear
5:15 PM 69.8 °F - 42.8 °F 38% 30.23 in 10.0 mi SSE 19.6 mph 27.6 mph N/A   Clear
5:35 PM 68.0 °F - 42.8 °F 40% 30.23 in 10.0 mi South 17.3 mph 23.0 mph N/A   Clear
5:55 PM 68.0 °F - 44.6 °F 43% 30.23 in 10.0 mi SSE 18.4 mph - N/A   Clear
6:15 PM 68.0 °F - 44.6 °F 43% 30.23 in 10.0 mi South 17.3 mph - N/A   Clear
6:35 PM 68.0 °F - 44.6 °F 43% 30.23 in 10.0 mi South 16.1 mph 21.9 mph N/A   Clear
6:55 PM 68.0 °F - 44.6 °F 43% 30.22 in 10.0 mi SSE 16.1 mph - N/A   Clear
7:15 PM 66.2 °F - 44.6 °F 46% 30.21 in 10.0 mi SSE 16.1 mph - N/A   Clear
7:35 PM 64.4 °F - 44.6 °F 49% 30.20 in 10.0 mi SSE 13.8 mph - N/A   Clear
7:55 PM 64.4 °F - 44.6 °F 49% 30.20 in 10.0 mi SE 13.8 mph - N/A   Partly Cloudy
8:15 PM 62.6 °F - 44.6 °F 52% 30.21 in 10.0 mi SE 11.5 mph - N/A   Mostly Cloudy
8:35 PM 62.6 °F - 46.4 °F 55% 30.26 in 9.0 mi NE 5.8 mph - N/A   Mostly Cloudy
8:55 PM 62.6 °F - 46.4 °F 55% 30.26 in 10.0 mi East 6.9 mph - N/A   Mostly Cloudy
9:15 PM 62.6 °F - 46.4 °F 55% 30.23 in 10.0 mi East 13.8 mph - N/A   Mostly Cloudy
9:35 PM 62.6 °F - 44.6 °F 52% 30.22 in 10.0 mi ESE 12.7 mph - N/A   Mostly Cloudy
9:55 PM 62.6 °F - 44.6 °F 52% 30.23 in 10.0 mi ESE 11.5 mph - N/A   Clear
10:15 PM 60.8 °F - 44.6 °F 55% 30.21 in 10.0 mi ESE 13.8 mph 20.7 mph N/A   Mostly Cloudy
10:35 PM 60.8 °F - 44.6 °F 55% 30.23 in 10.0 mi SE 11.5 mph - N/A   Mostly Cloudy
10:55 PM 60.8 °F - 44.6 °F 55% 30.22 in 10.0 mi SE 13.8 mph - N/A   Mostly Cloudy
11:15 PM 59.0 °F - 44.6 °F 59% 30.22 in 10.0 mi SE 10.4 mph 17.3 mph N/A   Mostly Cloudy
11:35 PM 59.0 °F - 44.6 °F 59% 30.23 in 10.0 mi SSE 9.2 mph - N/A   Overcast
11:55 PM 59.0 °F - 44.6 °F 59% 30.23 in 10.0 mi SSE 10.4 mph - N/A   Mostly Cloudy